Home   Weather   Canelones   Past weeks

Flag for Uruguay Past Weather in Canelones, Uruguay — Yesterday and Last 2 Weeks

Now
39 °F

Clear.


Feels Like: 35 °F
Forecast: 37 / 65 °F
Wind: 6 mph from Northeast

Location: Carrasco

Current Time: Aug 17, 2017 at 6:56:04 am

Latest Report: Aug 17, 2017 at 6:00 am


Visibility: 10 mi

Pressure: 30.07 "Hg

Humidity: 93%

Dew Point: 37 °F

Location of CanelonesLocation

Past Weather in Canelones — Graph

°F

Canelones Temperature Yesterday

Maximum temperature yesterday: 57 °F (at 1:00 pm)
Minimum temperature yesterday: 45 °F (at 11:00 pm)
Average temperature yesterday: 53 °F

High & Low Weather Summary for the Past Weeks

 TemperatureHumidityPressure
High70 °F (Aug 6, 3:00 pm)100% (Aug 2, 11:20 pm)30.33 "Hg (Aug 2, 11:20 pm)
Low37 °F (Aug 3, 4:00 am)37% (Aug 14, 4:00 pm)29.68 "Hg (Aug 12, 2:00 pm)
Average55 °F81%30.03 "Hg
* Reported Aug 2 5:00 am — Aug 17 5:00 am, Canelones. Weather by CustomWeather, © 2017

Note: Actual official high and low records may vary slightly from our data, if they occured in-between our weather recording intervals... More about our weather records

Advertising

Canelones Weather History for the Previous 24 Hours

Scroll right to see more
 ConditionsComfort  
Time TempWeatherWind HumidityBarometerVisibility
5:00 am
Thu, Aug 17
41 °FClear.7 mph87%30.07 "Hg10 mi
4:00 am41 °FClear.7 mph87%30.07 "Hg10 mi
3:00 am41 °FClear.7 mph93%30.09 "Hg10 mi
2:00 am41 °FClear.6 mph93%30.09 "Hg10 mi
1:00 am43 °FClear.3 mph87%30.12 "Hg10 mi
12:00 am41 °FClear.6 mph87%30.12 "Hg10 mi
11:00 pm
Wed, Aug 16
45 °FClear.No wind81%30.15 "Hg4 mi
10:00 pm48 °FClear.2 mph71%30.15 "Hg4 mi
9:00 pm48 °FClear.5 mph71%30.15 "Hg10 mi
8:00 pm48 °FClear.No wind66%30.15 "Hg10 mi
7:00 pm50 °FClear.6 mph67%30.15 "Hg10 mi
6:00 pm55 °FSunny.5 mph63%30.15 "Hg10 mi
5:00 pm55 °FSunny.10 mph63%30.15 "Hg10 mi
4:00 pm57 °FSunny.6 mph59%30.15 "Hg10 mi
3:00 pm57 °FSunny.8 mph55%30.15 "Hg10 mi
2:00 pm57 °FSunny.8 mph59%30.18 "Hg10 mi
1:00 pm57 °FPassing clouds.8 mph59%30.18 "HgN/A
12:00 pm55 °FPassing clouds.6 mph67%30.21 "HgN/A
11:00 am55 °FPassing clouds.10 mph63%30.21 "HgN/A
10:00 am55 °FSunny.9 mph59%30.18 "Hg10 mi
9:00 am54 °FSunny.8 mph77%30.18 "Hg10 mi
8:00 am52 °FSunny.8 mph77%30.15 "Hg10 mi
7:00 am52 °FPassing clouds.8 mph82%30.15 "HgN/A
6:00 am54 °FClear.8 mph72%30.12 "Hg10 mi
Weather by CustomWeather, © 2017

See weather overviewHow to use our weather pages